Simultaneous Nadir Overpasses (SNOs) Predictions

Prediction of SNOs between AQUA and METOP-C Satellite Orbit:

Table of predicted SNOs for the next 14.0 days since TLE Epoch: 3/29/2019
Index Date (AQUA) Time (AQUA) Lat,Lon (AQUA) SZA (AQUA ) Date (METOP-C) Time (METOP-C) Lat,Lon (METOP-C) SZA (METOP-C ) Distance(km) Time Diff (sec)
1 03/31/2019 10:16:08 -73.79,-159.64 110.31 03/31/2019 10:15:41 -73.79,-159.68 110.31 1.42 27
2 03/31/2019 11:05:37 73.88, 7.79 69.78 03/31/2019 11:06:20 73.86, 7.84 69.75 2.59 43
3 04/03/2019 05:50:24 -73.82, -93.26 111.38 04/03/2019 05:50:04 -73.80, -93.25 111.39 2.35 20
4 04/03/2019 06:39:52 73.86, 74.29 68.66 04/03/2019 06:40:43 73.87, 74.26 68.67 1.82 51
5 04/06/2019 00:35:06 73.37, 166.48 67.09 04/06/2019 00:33:57 73.30, 164.68 67.09 58.09 69
6 04/06/2019 01:24:40 -73.80, -26.79 112.48 04/06/2019 01:24:28 -73.81, -26.82 112.46 1.44 12
7 04/06/2019 02:14:09 73.89, 140.65 67.61 04/06/2019 02:15:07 73.88, 140.68 67.59 1.43 58
8 04/08/2019 20:09:28 73.67,-127.72 66.34 04/08/2019 20:08:15 73.61,-128.22 66.30 17.23 73
9 04/08/2019 20:58:57 -73.84, 39.56 113.50 04/08/2019 20:58:52 -73.82, 39.61 113.52 2.55 5
10 04/08/2019 21:48:25 73.87,-152.88 66.53 04/08/2019 21:49:31 73.89,-152.89 66.54 1.53 66
11 04/11/2019 15:43:45 73.76, -61.49 65.39 04/11/2019 15:42:35 73.76, -61.45 65.40 1.31 70
12 04/11/2019 16:33:12 -73.83, 106.01 114.56 04/11/2019 16:33:15 -73.83, 106.04 114.56 0.99 3




NCC Satellite Simultaneous Nadir Overpasses (SNOs) Prediction Service
